When you browse on this site, cookies collect data to enhance your experience and personalize the content and advertising you see.
Visit our Privacy Policy to learn more. By continuing to use the site, you agree to this use of cookies and data.
  • In Sweden
  • List of Countries
  • For 7 days
  • Water Temperature
  • Weather Map
  • Weather Widgets
  • user-avatar
    Login

    Hourly Weather Staraya Nyavka

    Today, 29 May, Friday

    Time Temperature Precipitation Wind Pressure Humidity
    00:00 +12°C° 0 mm 3 mps 749 mmHg 89%
    01:00 +12°C° 0 mm 3 mps 749 mmHg 91%
    02:00 +11°C° 0 mm 3 mps 749 mmHg 92%
    03:00 +11°C° 0 mm 3 mps 749 mmHg 94%
    04:00 +12°C° 0 mm 4 mps 749 mmHg 92%
    05:00 +13°C° 0 mm 4 mps 749 mmHg 90%
    06:00 +14°C° 0 mm 4 mps 749 mmHg 88%
    07:00 +15°C° 0 mm 4 mps 749 mmHg 84%
    08:00 +16°C° 0 mm 5 mps 749 mmHg 79%
    09:00 +19°C° 0 mm 5 mps 749 mmHg 74%
    10:00 +20°C° 0 mm 5 mps 748 mmHg 72%
    11:00 +21°C° 0 mm 5 mps 748 mmHg 70%
    12:00 +22°C° 0 mm 5 mps 747 mmHg 68%
    13:00 +22°C° 0 mm 5 mps 747 mmHg 67%
    14:00 +23°C° 0 mm 5 mps 747 mmHg 67%
    15:00 +23°C° 0 mm 5 mps 747 mmHg 67%
    16:00 +23°C° 0 mm 4 mps 746 mmHg 70%
    17:00 +23°C° 0 mm 4 mps 746 mmHg 74%
    18:00 +22°C° 0 mm 3 mps 745 mmHg 78%
    19:00 +21°C° 0 mm 3 mps 745 mmHg 82%
    20:00 +19°C° 0 mm 4 mps 745 mmHg 86%
    21:00 +17°C° 0 mm 4 mps 745 mmHg 90%
    22:00 +17°C° 0 mm 4 mps 745 mmHg 90%
    23:00 +15°C° 0 mm 4 mps 745 mmHg 91%

    Tomorrow, 30 May, Saturday

    Time Temperature Precipitation Wind Pressure Humidity
    00:00 +14°C° 0 mm 4 mps 744 mmHg 91%
    01:00 +14°C° 0 mm 3 mps 744 mmHg 92%
    02:00 +13°C° 0 mm 3 mps 744 mmHg 92%
    03:00 +12°C° 0 mm 3 mps 744 mmHg 93%
    04:00 +13°C° 0 mm 3 mps 743 mmHg 90%
    05:00 +14°C° 0 mm 4 mps 743 mmHg 88%
    06:00 +14°C° 0 mm 4 mps 743 mmHg 86%
    07:00 +17°C° 0 mm 4 mps 743 mmHg 82%
    08:00 +17°C° 0 mm 5 mps 742 mmHg 77%
    09:00 +20°C° 0 mm 5 mps 742 mmHg 73%
    10:00 +21°C° 0 mm 5 mps 742 mmHg 71%
    11:00 +22°C° 0 mm 6 mps 742 mmHg 69%
    12:00 +24°C° 0 mm 6 mps 741 mmHg 67%
    13:00 +24°C° 0 mm 6 mps 741 mmHg 66%
    14:00 +26°C° 0 mm 6 mps 741 mmHg 66%
    15:00 +27°C° 0 mm 5 mps 740 mmHg 65%
    16:00 +26°C° 0 mm 5 mps 740 mmHg 70%
    17:00 +25°C° 0 mm 4 mps 739 mmHg 75%
    18:00 +23°C° 0 mm 4 mps 739 mmHg 79%
    19:00 +22°C° 1.9 mm 4 mps 739 mmHg 84%
    20:00 +20°C° 1.9 mm 4 mps 739 mmHg 89%
    21:00 +19°C° 1.9 mm 4 mps 739 mmHg 94%
    22:00 +19°C° 1.7 mm 3 mps 739 mmHg 95%
    23:00 +18°C° 1.7 mm 3 mps 739 mmHg 96%

    Day after tomorrow, 31 May, Sunday

    Time Temperature Precipitation Wind Pressure Humidity
    00:00 +18°C° 1.7 mm 3 mps 739 mmHg 97%
    01:00 +17°C° 1 mm 3 mps 738 mmHg 97%
    02:00 +17°C° 1 mm 4 mps 738 mmHg 97%
    03:00 +17°C° 1 mm 4 mps 738 mmHg 96%
    04:00 +15°C° 1.1 mm 4 mps 738 mmHg 96%
    05:00 +15°C° 1.1 mm 4 mps 738 mmHg 96%
    06:00 +15°C° 1.1 mm 4 mps 739 mmHg 96%
    07:00 +15°C° 0.1 mm 5 mps 739 mmHg 94%
    08:00 +16°C° 0.1 mm 6 mps 739 mmHg 92%
    09:00 +17°C° 0.1 mm 6 mps 739 mmHg 90%
    10:00 +17°C° 0.4 mm 7 mps 739 mmHg 87%
    11:00 +18°C° 0.4 mm 7 mps 739 mmHg 84%
    12:00 +18°C° 0.4 mm 7 mps 739 mmHg 81%
    13:00 +19°C° 1.1 mm 6 mps 739 mmHg 82%
    14:00 +19°C° 1.1 mm 6 mps 739 mmHg 83%
    15:00 +17°C° 1.1 mm 5 mps 740 mmHg 84%
    16:00 +16°C° 0.6 mm 5 mps 740 mmHg 86%
    17:00 +15°C° 0.6 mm 5 mps 740 mmHg 89%
    18:00 +14°C° 0.6 mm 5 mps 740 mmHg 91%
    19:00 +13°C° 0.1 mm 6 mps 740 mmHg 90%
    20:00 +11°C° 0.1 mm 6 mps 740 mmHg 89%
    21:00 +10°C° 0.1 mm 6 mps 741 mmHg 89%
    22:00 +9°C° 0.1 mm 5 mps 741 mmHg 90%
    23:00 +10°C° 0.1 mm 4 mps 741 mmHg 91%

    1 June, Monday

    Time Temperature Precipitation Wind Pressure Humidity
    00:00 +10°C° 0.1 mm 3 mps 741 mmHg 92%
    01:00 +9°C° 0 mm 3 mps 741 mmHg 93%
    02:00 +9°C° 0 mm 3 mps 741 mmHg 95%
    03:00 +8°C° 0 mm 3 mps 742 mmHg 97%
    04:00 +8°C° 0 mm 4 mps 742 mmHg 95%
    05:00 +8°C° 0 mm 5 mps 742 mmHg 93%
    06:00 +8°C° 0 mm 5 mps 743 mmHg 91%
    07:00 +8°C° 0 mm 5 mps 743 mmHg 88%
    08:00 +9°C° 0 mm 5 mps 743 mmHg 85%
    09:00 +9°C° 0 mm 5 mps 743 mmHg 82%
    10:00 +10°C° 0.1 mm 5 mps 744 mmHg 76%
    11:00 +12°C° 0.1 mm 5 mps 744 mmHg 70%
    12:00 +13°C° 0.1 mm 5 mps 744 mmHg 64%
    13:00 +13°C° 0.1 mm 5 mps 744 mmHg 63%
    14:00 +14°C° 0.1 mm 5 mps 744 mmHg 61%
    15:00 +14°C° 0.1 mm 4 mps 744 mmHg 60%
    16:00 +14°C° 0.1 mm 4 mps 744 mmHg 64%
    17:00 +13°C° 0.1 mm 4 mps 744 mmHg 67%
    18:00 +13°C° 0.1 mm 3 mps 744 mmHg 71%
    19:00 +11°C° 0.1 mm 3 mps 744 mmHg 74%
    20:00 +10°C° 0.1 mm 3 mps 744 mmHg 77%
    21:00 +9°C° 0.1 mm 3 mps 744 mmHg 80%
    22:00 +8°C° 0 mm 2 mps 744 mmHg 82%
    23:00 +7°C° 0 mm 2 mps 744 mmHg 84%

    2 June, Tuesday

    Time Temperature Precipitation Wind Pressure Humidity
    00:00 +7°C° 0 mm 2 mps 744 mmHg 86%
    01:00 +6°C° 0 mm 2 mps 744 mmHg 87%
    02:00 +6°C° 0 mm 2 mps 744 mmHg 88%
    03:00 +5°C° 0 mm 2 mps 744 mmHg 89%
    04:00 +6°C° 0 mm 2 mps 744 mmHg 87%
    05:00 +6°C° 0 mm 2 mps 744 mmHg 86%
    06:00 +7°C° 0 mm 3 mps 744 mmHg 84%
    07:00 +8°C° 0.1 mm 3 mps 744 mmHg 79%
    08:00 +10°C° 0.1 mm 3 mps 744 mmHg 74%
    09:00 +11°C° 0.1 mm 3 mps 744 mmHg 68%
    10:00 +12°C° 0.2 mm 3 mps 744 mmHg 66%
    11:00 +12°C° 0.2 mm 3 mps 744 mmHg 64%
    12:00 +14°C° 0.2 mm 2 mps 744 mmHg 62%
    13:00 +13°C° 0.2 mm 3 mps 743 mmHg 61%
    14:00 +13°C° 0.2 mm 3 mps 743 mmHg 60%
    15:00 +14°C° 0.2 mm 3 mps 743 mmHg 60%
    16:00 +14°C° 0.2 mm 3 mps 743 mmHg 64%
    17:00 +13°C° 0.2 mm 3 mps 743 mmHg 68%
    18:00 +14°C° 0.2 mm 2 mps 743 mmHg 72%
    19:00 +12°C° 0 mm 2 mps 743 mmHg 76%
    20:00 +10°C° 0 mm 2 mps 743 mmHg 80%
    21:00 +8°C° 0 mm 2 mps 743 mmHg 84%
    22:00 +7°C° 0 mm 2 mps 743 mmHg 87%
    23:00 +7°C° 0 mm 2 mps 743 mmHg 89%

    3 June, Wednesday

    Time Temperature Precipitation Wind Pressure Humidity
    00:00 +6°C° 0 mm 2 mps 743 mmHg 92%
    01:00 +6°C° 0 mm 2 mps 743 mmHg 93%
    02:00 +6°C° 0 mm 2 mps 743 mmHg 93%
    03:00 +4°C° 0 mm 3 mps 743 mmHg 94%
    04:00 +5°C° 0 mm 3 mps 743 mmHg 92%
    05:00 +7°C° 0 mm 3 mps 743 mmHg 90%
    06:00 +8°C° 0 mm 3 mps 743 mmHg 87%
    07:00 +8°C° 0 mm 4 mps 743 mmHg 81%
    08:00 +10°C° 0 mm 4 mps 743 mmHg 74%
    09:00 +12°C° 0 mm 5 mps 744 mmHg 67%
    10:00 +13°C° 0.1 mm 5 mps 744 mmHg 64%
    11:00 +13°C° 0.1 mm 5 mps 744 mmHg 62%
    12:00 +14°C° 0.1 mm 4 mps 744 mmHg 59%
    13:00 +14°C° 0.2 mm 4 mps 743 mmHg 60%
    14:00 +14°C° 0.2 mm 4 mps 743 mmHg 61%
    15:00 +14°C° 0.2 mm 4 mps 743 mmHg 62%
    16:00 +14°C° 0.3 mm 4 mps 743 mmHg 66%
    17:00 +14°C° 0.3 mm 3 mps 744 mmHg 70%
    18:00 +13°C° 0.3 mm 3 mps 744 mmHg 74%
    19:00 +12°C° 0.1 mm 3 mps 744 mmHg 79%
    20:00 +10°C° 0.1 mm 3 mps 744 mmHg 84%
    21:00 +9°C° 0.1 mm 2 mps 744 mmHg 88%
    22:00 +8°C° 0 mm 2 mps 744 mmHg 89%
    23:00 +8°C° 0 mm 2 mps 745 mmHg 90%
    Show more